TimeEST,TemperatureF,Dew PointF,Humidity,Sea Level PressureIn,VisibilityMPH,Wind Direction,Wind SpeedMPH,Gust SpeedMPH,PrecipitationIn,Events,Conditions,WindDirDegrees,DateUTC
12:51 AM,28.0,12.9,53,30.20,10.0,WSW,8.1,-,N/A,,Clear,250,2012-12-31 05:51:00
1:51 AM,26.1,14.0,60,30.20,10.0,WSW,8.1,-,N/A,,Clear,240,2012-12-31 06:51:00
2:51 AM,26.1,15.1,63,30.20,10.0,SW,6.9,-,N/A,,Overcast,220,2012-12-31 07:51:00
3:51 AM,28.9,16.0,58,30.19,10.0,SW,9.2,-,N/A,,Overcast,230,2012-12-31 08:51:00
4:51 AM,30.9,18.0,59,30.19,10.0,SW,10.4,-,N/A,,Overcast,230,2012-12-31 09:51:00
5:51 AM,28.4,19.4,69,30.17,10.0,SW,10.4,-,N/A,,Overcast,230,2012-12-31 10:51:00
6:51 AM,28.9,19.9,69,30.19,10.0,WSW,11.5,-,N/A,,Mostly Cloudy,240,2012-12-31 11:51:00
7:51 AM,28.9,19.9,69,30.18,10.0,WSW,11.5,-,N/A,,Overcast,240,2012-12-31 12:51:00
8:51 AM,30.9,19.0,61,30.18,10.0,WSW,8.1,17.3,N/A,,Overcast,250,2012-12-31 13:51:00
9:51 AM,32.0,19.9,61,30.18,10.0,West,13.8,19.6,N/A,,Overcast,260,2012-12-31 14:51:00
10:51 AM,34.0,21.0,59,30.16,10.0,West,12.7,-,N/A,,Overcast,260,2012-12-31 15:51:00
11:51 AM,36.0,21.0,55,30.12,10.0,WSW,13.8,-,N/A,,Overcast,250,2012-12-31 16:51:00
12:51 PM,37.0,21.0,52,30.07,10.0,West,13.8,-,N/A,,Overcast,260,2012-12-31 17:51:00
1:51 PM,39.0,21.0,49,30.04,10.0,WSW,15.0,-,N/A,,Overcast,250,2012-12-31 18:51:00
2:51 PM,37.9,21.0,51,30.03,10.0,WSW,18.4,-,N/A,,Overcast,250,2012-12-31 19:51:00
3:51 PM,37.0,21.9,54,30.00,10.0,WSW,15.0,23.0,N/A,,Overcast,240,2012-12-31 20:51:00
4:51 PM,37.0,21.0,52,30.00,10.0,WSW,10.4,-,N/A,,Overcast,240,2012-12-31 21:51:00
5:51 PM,37.0,21.0,52,29.99,10.0,WSW,8.1,-,N/A,,Overcast,250,2012-12-31 22:51:00
6:51 PM,37.0,21.9,54,29.98,10.0,SW,10.4,-,N/A,,Overcast,230,2012-12-31 23:51:00
7:51 PM,37.0,21.9,54,29.94,10.0,SW,10.4,-,N/A,,Overcast,230,2013-01-01 00:51:00
8:51 PM,37.0,21.9,54,29.92,10.0,SW,13.8,-,N/A,,Overcast,230,2013-01-01 01:51:00
9:51 PM,37.9,21.9,53,29.91,10.0,SW,12.7,-,N/A,,Overcast,230,2013-01-01 02:51:00
10:51 PM,37.9,23.0,55,29.91,10.0,SW,13.8,-,N/A,,Overcast,230,2013-01-01 03:51:00
11:51 PM,37.9,24.1,57,29.91,10.0,WSW,15.0,-,N/A,,Overcast,240,2013-01-01 04:51:00